Date String (YYYY-MM-DD hh:mm:ss) UTC,Instrument flags,absolute air pressure of the measurement (hPa),sample flow rate (lpm),inlet stack bypass flow (lpm),air temperature of the measurement (°C),ambient temperature measured by the external sensor (°C),aerosol sample conditioner tube jacket temperature (°C),OPC LED temperature (°C),internal box temperature (°C),relative humidity of the measurement (%),span deviation,mass concentration of particles derived from Lorenz-Mie calculation of OPC scattering (μg/m³),mass concentration of particles derived from Lorenz-Mie calculation of OPC scattering (μg/m³),mass concentration of particles derived from Lorenz-Mie calculation of OPC scattering (μg/m³)
DateTimeUTC,F1_M11,P_M11,Q1_M11,Q2_M11,T1_M11,T2_M11,T3_M11,T4_M11,T5_M11,U1_M11,ZSPAN_M11,X0_M11,X2_M11,X1_M11
2024-02-14 13:00:00,SystemResetWarning,0822.4,4.99,000.00,018.6,018.7,000.0,027.1,020.7,14.2,0000.0,0009.06,0004.24,0003.83
2024-02-14 13:01:00,SystemResetWarning,0822.4,4.99,000.00,018.6,018.6,000.0,027.0,020.6,13.4,0000.0,0009.66,0004.24,0003.83
2024-02-14 13:02:00,SystemResetWarning,0822.4,5.01,000.00,018.6,018.5,000.0,027.0,020.5,12.8,0000.0,0009.87,0004.25,0003.81
2024-02-14 13:03:00,SystemResetWarning,0822.4,5.01,000.00,018.6,018.4,000.0,026.9,020.4,12.3,0000.0,0009.88,0004.24,0003.80
2024-02-14 13:04:00,SystemResetWarning,0822.5,5.00,000.00,018.6,018.3,000.0,026.9,020.4,12.0,0000.0,0009.67,0004.17,0003.74
2024-02-14 13:05:00,SystemResetWarning,0822.4,5.00,000.00,018.5,018.2,000.0,026.9,020.3,12.0,0000.0,0009.49,0004.10,0003.70
2024-02-14 13:06:00,SystemResetWarning,0822.4,4.99,000.00,018.5,018.2,000.0,026.9,020.3,12.6,0000.0,0009.71,0004.07,0003.68
2024-02-14 13:07:00,SystemResetWarning,0822.8,5.00,000.00,018.5,018.1,000.0,026.9,020.3,12.7,0000.0,0009.33,0004.03,0003.66
2024-02-14 13:08:00,SystemResetWarning,0822.6,5.00,000.00,018.5,018.1,000.0,026.9,020.2,12.2,0000.0,0009.28,0004.00,0003.64
2024-02-14 13:09:00,SystemResetWarning,0822.6,4.99,000.00,018.5,018.0,000.0,026.9,020.2,13.1,0000.0,0009.09,0003.88,0003.55
2024-02-14 13:10:00,SystemResetWarning,0822.5,4.99,000.00,018.4,018.0,000.0,026.9,020.1,13.5,0000.0,0008.52,0003.74,0003.43
2024-02-14 13:11:00,SystemResetWarning,0822.6,5.00,000.00,018.4,017.9,000.0,026.9,020.1,13.7,0000.0,0008.21,0003.63,0003.33
2024-02-14 13:12:00,SystemResetWarning,0822.4,5.01,000.00,018.4,017.9,000.0,026.9,020.1,13.5,0000.0,0007.47,0003.48,0003.19
2024-02-14 13:13:00,SystemResetWarning,0822.5,5.01,000.00,018.4,017.9,000.0,026.9,020.1,13.4,0000.0,0006.83,0003.35,0003.08
2024-02-14 13:14:00,SystemResetWarning,0822.4,4.99,000.00,018.3,017.8,000.0,026.9,020.0,13.5,0000.0,0007.03,0003.26,0002.90
2024-02-14 13:15:00,SystemResetWarning,0822.6,4.98,000.00,018.3,017.8,000.0,026.9,020.0,14.1,0000.0,0007.79,0003.14,0002.71
2024-02-14 13:16:00,SystemResetWarning,0822.9,5.00,000.00,018.3,017.8,000.0,026.9,020.0,14.6,0000.0,0007.54,0003.03,0002.60
2024-02-14 13:17:00,SystemResetWarning,0822.7,5.01,000.00,018.3,017.7,000.0,026.9,020.0,14.8,0000.0,0007.14,0002.95,0002.49
2024-02-14 13:18:00,SystemResetWarning,0822.8,5.02,000.00,018.3,017.7,000.0,026.9,020.0,14.9,0000.0,0006.36,0002.93,0002.43
2024-02-14 13:19:00,SystemResetWarning,0823.0,5.00,000.00,018.3,017.7,000.0,026.9,020.0,14.7,0000.0,0006.75,0002.97,0002.42
2024-02-14 13:20:00,SystemResetWarning,0822.9,4.99,000.00,018.3,017.7,000.0,026.9,020.0,14.5,0000.0,0007.20,0003.07,0002.48
2024-02-14 13:21:00,SystemResetWarning,0822.8,5.00,000.00,018.3,017.7,000.0,026.9,020.0,14.5,0000.0,0007.35,0003.16,0002.62
2024-02-14 13:22:00,SystemResetWarning,0822.7,5.00,000.00,018.3,017.7,000.0,026.9,020.0,14.1,0000.0,0007.54,0003.29,0002.82
2024-02-14 13:23:00,SystemResetWarning,0822.8,5.01,000.00,018.3,017.6,000.0,026.9,020.0,14.3,0000.0,0007.70,0003.44,0003.06
2024-02-14 13:24:00,SystemResetWarning,0822.8,5.00,000.00,018.3,017.6,000.0,026.8,020.0,14.3,0000.0,0007.80,0003.53,0003.18
2024-02-14 13:25:00,SystemResetWarning,0822.7,5.00,000.00,018.3,017.6,000.0,026.8,020.0,14.3,0000.0,0008.07,0003.63,0003.27
2024-02-14 13:26:00,SystemResetWarning,0822.8,4.99,000.00,018.3,017.6,000.0,026.8,020.0,14.2,0000.0,0007.94,0003.76,0003.37
2024-02-14 13:27:00,SystemResetWarning,0822.8,4.99,000.00,018.2,017.6,000.0,026.8,020.0,14.0,0000.0,0007.93,0003.83,0003.42
2024-02-14 13:28:00,SystemResetWarning,0822.6,5.01,000.00,018.2,017.6,000.0,026.9,020.0,13.7,0000.0,0008.05,0003.88,0003.45
2024-02-14 13:29:00,SystemResetWarning,0822.8,5.00,000.00,018.3,017.6,000.0,026.9,020.0,13.4,0000.0,0008.22,0003.85,0003.44
2024-02-14 13:30:00,SystemResetWarning,0822.7,5.00,000.00,018.3,017.6,000.0,026.8,020.0,13.4,0000.0,0008.37,0003.81,0003.44
2024-02-14 13:31:00,SystemResetWarning,0822.8,5.00,000.00,018.2,017.6,000.0,026.8,020.0,13.6,0000.0,0008.38,0003.78,0003.44
2024-02-14 13:32:00,SystemResetWarning,0822.8,4.99,000.00,018.2,017.6,000.0,026.8,020.0,13.7,0000.0,0008.48,0003.78,0003.44
2024-02-14 13:33:00,SystemResetWarning,0822.8,5.00,000.00,018.2,017.6,000.0,026.8,020.0,13.9,0000.0,0008.42,0003.76,0003.41
2024-02-14 13:34:00,SystemResetWarning,0822.7,5.00,000.00,018.2,017.6,000.0,026.8,020.0,14.3,0000.0,0008.50,0003.69,0003.36
2024-02-14 13:35:00,SystemResetWarning,0822.9,5.00,000.00,018.2,017.6,000.0,026.8,020.0,14.5,0000.0,0008.95,0003.62,0003.30
2024-02-14 13:36:00,SystemResetWarning,0823.0,4.99,000.00,018.2,017.6,000.0,026.8,020.0,14.7,0000.0,0008.55,0003.53,0003.22
2024-02-14 13:37:00,SystemResetWarning,0822.9,5.00,000.00,018.2,017.6,000.0,026.8,020.0,14.7,0000.0,0008.02,0003.46,0003.15
2024-02-14 13:38:00,SystemResetWarning,0822.9,5.00,000.00,018.2,017.6,000.0,026.8,020.0,14.7,0000.0,0008.29,0003.44,0003.12
2024-02-14 13:39:00,SystemResetWarning,0823.0,5.00,000.00,018.2,017.6,000.0,026.8,020.0,14.8,0000.0,0008.21,0003.42,0003.10
2024-02-14 13:40:00,SystemResetWarning,0822.8,5.01,000.00,018.2,017.6,000.0,026.8,020.0,14.8,0000.0,0007.99,0003.42,0003.10
2024-02-14 13:41:00,SystemResetWarning,0823.0,5.00,000.00,018.2,017.6,000.0,026.9,020.0,14.7,0000.0,0007.69,0003.46,0003.12
2024-02-14 13:42:00,SystemResetWarning,0822.9,5.00,000.00,018.2,017.6,000.0,026.8,020.0,14.7,0000.0,0007.60,0003.53,0003.16
2024-02-14 13:43:00,SystemResetWarning,0823.1,5.00,000.00,018.2,017.7,000.0,026.9,020.1,14.7,0000.0,0007.89,0003.61,0003.20
2024-02-14 13:44:00,SystemResetWarning,0823.2,5.01,000.00,018.4,018.4,000.0,027.0,020.5,14.7,0000.0,0008.04,0003.67,0003.23
2024-02-14 13:45:00,SystemResetWarning,0823.2,5.00,000.00,018.6,019.1,000.0,027.1,021.0,14.6,0000.0,0008.04,0003.72,0003.27
2024-02-14 13:46:00,SystemResetWarning,0823.2,5.00,000.00,018.8,019.1,000.0,027.0,020.9,14.7,0000.0,0008.20,0003.80,0003.32
2024-02-14 13:47:00,SystemResetWarning,0822.9,4.99,000.00,018.8,018.9,000.0,027.0,020.8,14.8,0000.0,0009.05,0003.88,0003.40
2024-02-14 13:48:00,SystemResetWarning,0823.1,5.00,000.00,018.8,018.8,000.0,027.0,020.7,14.8,0000.0,0009.38,0003.93,0003.46
2024-02-14 13:49:00,SystemResetWarning,0823.0,5.00,000.00,018.7,018.6,000.0,027.0,020.5,14.8,0000.0,0009.33,0003.99,0003.51
2024-02-14 13:50:00,SystemResetWarning,0823.1,5.00,000.00,018.7,018.5,000.0,027.0,020.5,14.9,0000.0,0009.22,0003.98,0003.51
2024-02-14 13:51:00,SystemResetWarning,0822.9,5.00,000.00,018.7,018.4,000.0,027.0,020.4,14.9,0000.0,0009.21,0003.98,0003.52
2024-02-14 13:52:00,SystemResetWarning,0822.9,5.00,000.00,018.7,018.3,000.0,027.0,020.4,14.9,0000.0,0009.10,0003.93,0003.51
2024-02-14 13:53:00,SystemResetWarning,0823.0,5.00,000.00,018.7,018.3,000.0,027.0,020.4,15.0,0000.0,0008.92,0003.89,0003.52
2024-02-14 13:54:00,SystemResetWarning,0823.0,5.00,000.00,018.7,018.2,000.0,027.0,020.4,15.0,0000.0,0009.17,0003.87,0003.54
2024-02-14 13:55:00,SystemResetWarning,0823.2,5.00,000.00,018.6,018.2,000.0,027.0,020.3,15.0,0000.0,0009.14,0003.84,0003.55
2024-02-14 13:56:00,SystemResetWarning,0823.0,5.00,000.00,018.6,018.1,000.0,027.0,020.3,15.1,0000.0,0009.13,0003.87,0003.58
2024-02-14 13:57:00,SystemResetWarning,0822.9,5.00,000.00,018.6,018.0,000.0,027.0,020.2,15.1,0000.0,0008.67,0003.92,0003.60
2024-02-14 13:58:00,SystemResetWarning,0822.9,5.00,000.00,018.5,018.0,000.0,027.0,020.2,15.1,0000.0,0007.99,0003.96,0003.62
2024-02-14 13:59:00,SystemResetWarning,0823.0,5.01,000.00,018.5,018.0,000.0,027.0,020.1,15.1,0000.0,0007.62,0004.00,0003.66
